Gallup, NM

6:04 PM MDT on July 20, 2017 (GMT -0600)
Gallup Municipal

Weather History for KGUP - March, 2014

Change the Weather History Date:

Wednesday, March 19, 2014

  Actual Average Record
Temperature  
Mean Temperature 34 °F -  
Max Temperature 55 °F 58 °F 75 °F (2017)
Min Temperature 12 °F 22 °F 9 °F (1977)
Degree Days  
Heating Degree Days 32    
Moisture  
Dew Point -1 °F    
Average Humidity 28    
Maximum Humidity 62    
Minimum Humidity 9    
Precipitation  
Precipitation 0.00 in - - ()
Sea Level Pressure  
Sea Level Pressure 30.21 in    
Wind  
Wind Speed 3 mph (NW)    
Max Wind Speed 13 mph    
Max Gust Speed -    
Visibility 10 miles    
Events      
Averages and records for this station are not official NWS values.
T = Trace of Precipitation, MM = Missing Value Source: NWS Daily Summary

Daily Weather History Graph

Daily Weather History Graph

Search for Another Location

Airport or City:

Trip Planner

Search our weather history database for the weather conditions in past years. The results will help you decide how hot, cold, wet, or windy it might be!

Date:

Astronomy

Mar. 19, 2014 Rise Set
Actual Time 7:20 AM MDT 7:26 PM MDT
Civil Twilight 6:54 AM MDT 7:51 PM MDT
Nautical Twilight 6:25 AM MDT 8:21 PM MDT
Astronomical Twilight 5:55 AM MDT 8:51 PM MDT
Moon 10:40 PM MDT (3/19) 8:54 AM MDT (3/19)
Length of Visible Light 12h 56m
Length of Day
12h 06m
Waning Gibbous, 91% of the Moon is Illuminated
Mar 19
Waning Gibbous
Mar 23
Last Quarter
Mar 30
New
Apr 7
First Quarter
Apr 15
Full

Hourly Weather History & Observations

Time (MDT) Temp. Windchill Dew Point Humidity Pressure Visibility Wind Dir Wind Speed Gust Speed Precip Events Conditions
12:53 AM 19.9 °F - -2.0 °F 38% 30.14 in 10.0 mi Calm Calm - N/A   Clear
1:53 AM 19.0 °F 13.9 °F -2.0 °F 40% 30.12 in 10.0 mi NE 3.5 mph - N/A   Clear
2:53 AM 17.1 °F - -2.9 °F 41% 30.15 in 10.0 mi Calm Calm - N/A   Clear
3:53 AM 17.1 °F - -2.0 °F 43% 30.13 in 10.0 mi Calm Calm - N/A   Clear
4:53 AM 14.0 °F - -2.0 °F 49% 30.17 in 10.0 mi Calm Calm - N/A   Clear
5:53 AM 15.1 °F - -0.9 °F 49% 30.18 in 10.0 mi Calm Calm - N/A   Clear
6:53 AM 12.9 °F - 1.9 °F 62% 30.24 in 10.0 mi Calm Calm - N/A   Clear
7:53 AM 15.1 °F - 1.9 °F 56% 30.31 in 10.0 mi Calm Calm - N/A   Clear
8:53 AM 27.0 °F 19.5 °F 3.0 °F 36% 30.29 in 10.0 mi ENE 6.9 mph - N/A   Clear
9:53 AM 35.1 °F 32.2 °F 6.1 °F 30% 30.28 in 10.0 mi NE 3.5 mph - N/A   Clear
10:53 AM 42.1 °F 36.6 °F 3.9 °F 21% 30.29 in 10.0 mi ENE 9.2 mph - N/A   Clear
11:53 AM 46.0 °F - 3.0 °F 17% 30.25 in 10.0 mi North - - N/A   Clear
12:53 PM 48.0 °F - -2.0 °F 13% 30.25 in 10.0 mi WNW 8.1 mph - N/A   Clear
1:53 PM 50.0 °F - -2.0 °F 12% 30.21 in 10.0 mi NW 8.1 mph - N/A   Clear
2:53 PM 51.1 °F - -2.0 °F 11% 30.20 in 10.0 mi Variable 4.6 mph - N/A   Clear
3:53 PM 53.1 °F - -0.9 °F 11% 30.17 in 10.0 mi South 8.1 mph - N/A   Clear
4:53 PM 54.0 °F - -2.0 °F 10% 30.17 in 10.0 mi Variable 3.5 mph - N/A   Clear
5:53 PM 55.0 °F - -0.9 °F 10% 30.16 in 10.0 mi West 9.2 mph - N/A   Clear
6:53 PM 53.1 °F - -5.1 °F 9% 30.19 in 10.0 mi SSW 12.7 mph - N/A   Clear
7:53 PM 44.1 °F 39.5 °F -4.0 °F 13% 30.25 in 10.0 mi SSW 8.1 mph - N/A   Clear
8:53 PM 41.0 °F - -2.0 °F 16% 30.24 in 10.0 mi Calm Calm - N/A   Clear
9:53 PM 32.0 °F - -0.9 °F 24% 30.26 in 10.0 mi Calm Calm - N/A   Clear
10:53 PM 27.0 °F - -0.9 °F 30% 30.25 in 10.0 mi Calm Calm - N/A   Clear
11:53 PM 25.0 °F - -0.0 °F 34% 30.24 in 10.0 mi Calm Calm - N/A   Clear